This is the latest recevied weather packets stored in our database for station/object WX2NJ. If no packets are shown the sender has not sent any weather packets the latest 10 day(s).
| Time | Temp. | Humidity | Pressure | Rain* | Wind** | Luminosity | Snow |
|---|---|---|---|---|---|---|---|
| 1778169200 | 16.11° C | 52% | 1014.1 hPa | 0 mm | - | 658 W/m² | - |
| 1778168896 | 16.11° C | 57% | 1014.1 hPa | 0 mm | - | 248 W/m² | - |
| 1778168594 | 15.56° C | 55% | 1013.9 hPa | 0 mm | - | 465 W/m² | - |
| 1778168290 | 16.11° C | 57% | 1014.2 hPa | 0 mm | - | 541 W/m² | - |
| 1778167987 | 16.11° C | 56% | 1014.3 hPa | 0 mm | - | 343 W/m² | - |
| 1778167683 | 15.56° C | 56% | 1014.4 hPa | 0 mm | - | 576 W/m² | - |
| 1778167380 | 15.56° C | 58% | 1014.6 hPa | 0 mm | - | 278 W/m² | - |
| 1778167075 | 15.56° C | 59% | 1014.7 hPa | 0 mm | - | 313 W/m² | - |
| 1778166772 | 14.44° C | 62% | 1014.6 hPa | 0 mm | - | 352 W/m² | - |
| 1778166469 | 15° C | 65% | 1014.8 hPa | 0 mm | - | 344 W/m² | - |
| 1778166166 | 15° C | 65% | 1014.8 hPa | 0 mm | - | 322 W/m² | - |
| 1778165862 | 13.89° C | 66% | 1014.7 hPa | 0 mm | - | 301 W/m² | - |
| 1778165558 | 14.44° C | 68% | 1014.6 hPa | 0 mm | - | 280 W/m² | - |
| 1778165256 | 13.89° C | 69% | 1014.7 hPa | 0 mm | - | 241 W/m² | - |
| 1778164953 | 13.89° C | 69% | 1015 hPa | 0 mm | - | 257 W/m² | - |
| 1778164649 | 13.89° C | 70% | 1014.8 hPa | 0 mm | - | 259 W/m² | - |
| 1778164347 | 13.33° C | 70% | 1014.8 hPa | 0 mm | - | 252 W/m² | - |
| 1778164043 | 13.89° C | 71% | 1014.8 hPa | 0 mm | - | 217 W/m² | - |
| 1778163740 | 13.33° C | 73% | 1014.9 hPa | 0 mm | - | 243 W/m² | - |
| 1778163435 | 13.33° C | 73% | 1014.8 hPa | 0 mm | - | 259 W/m² | - |
| 1778163133 | 13.89° C | 72% | 1014.8 hPa | 0 mm | - | 267 W/m² | - |
| 1778162829 | 13.89° C | 76% | 1014.5 hPa | 0 mm | - | 330 W/m² | - |
| 1778162527 | 12.78° C | 78% | 1014.6 hPa | 0 mm | - | 213 W/m² | - |
| 1778162223 | 12.78° C | 79% | 1014.8 hPa | 0 mm | - | 164 W/m² | - |
| 1778161921 | 12.78° C | 78% | 1015 hPa | 0 mm | - | 157 W/m² | - |
* Rain latest hour (hover to see other rain measurements)
** Current wind speed in m/s (hover to see current wind gust speed)